Home > Time Zones > World Clock > Weather > Iran > Tabriz > Past weeks

Flag for Iran Weather past 2 weeks in Tabriz, Iran

Now
81 °F

Passing clouds.


Feels Like: 80 °F
Forecast: 70 / 91 °F
Wind: 18 mph from East

Location: Tabriz Airport

Current Time: Aug 21, 2014 at 11:35:29 PM

Latest Report: Aug 21, 2014 at 10:30 PM


Visibility: N/A

Pressure: 30.04 "Hg

Humidity: 37%

Dew point: 52 °F

Location of TabrizLocation

Historic Weather in Tabriz — Graph

°F

Tabriz temperature yesterday

Maximum temperature yesterday: 95 °F (at 12:30 PM)
Minimum temperature yesterday: 73 °F (at 4:30 AM)
Average temperature yesterday: 86 °F

Past Weeks' High & Low Weather Summary

 TemperatureHumidityPressure
High100 °F (Aug 9, 5:00 PM)60% (Aug 14, 6:30 AM)30.21 "Hg (Aug 14, 6:30 AM)
Low66 °F (Aug 7, 6:30 AM)11% (Aug 10, 7:00 PM)29.77 "Hg (Aug 6, 8:30 PM)
Average85 °F26%29.98 "Hg
* Reported Aug 6 8:30 PM — Aug 21 9:20 PM, Tabriz, Weather by CustomWeather, © 2014

Note: Actual official high and low records may vary slightly from our data, if they occured in-between our weather recording intervals... More about our weather records

Advertising

Tabriz weather history for previous 24 hours

 ConditionsComfort  
Time TempWeatherWind HumidityBarometerVisibility
9:20 PM
Aug 21
84 °FPassing clouds.14 mph31%30.01 "HgN/A
8:20 PM86 °FPassing clouds.21 mph29%30.01 "HgN/A
7:30 PM90 °FScattered clouds.18 mph22%30.01 "HgN/A
6:30 PM91 °FScattered clouds.18 mph21%29.98 "HgN/A
6:20 PM91 °FScattered clouds.18 mph21%29.98 "HgN/A
5:50 PM91 °FPassing clouds.21 mph21%29.98 "HgN/A
5:30 PM95 °FPassing clouds.5 mph16%29.98 "HgN/A
4:50 PM95 °FPassing clouds.9 mph18%29.98 "HgN/A
4:30 PM95 °FPassing clouds.12 mph19%29.98 "HgN/A
3:50 PM95 °FPassing clouds.12 mph19%30.01 "HgN/A
3:30 PM95 °FPassing clouds.5 mph20%30.01 "HgN/A
2:50 PM95 °FPassing clouds.5 mph20%30.01 "HgN/A
2:20 PM93 °FPassing clouds.5 mph20%30.04 "HgN/A
1:50 PM93 °FPassing clouds.5 mph20%30.04 "HgN/A
12:50 PM91 °FPassing clouds.No wind21%30.07 "HgN/A
12:30 PM90 °FPassing clouds.5 mph22%30.07 "HgN/A
11:50 AM88 °FSunny.14 mph27%30.09 "Hg10 mi
11:30 AM86 °FSunny.9 mph29%30.09 "Hg10 mi
10:50 AM86 °FSunny.12 mph31%29.86 "Hg10 mi
10:30 AM84 °FSunny.14 mph31%30.09 "Hg10 mi
9:50 AM82 °FSunny.12 mph35%30.09 "Hg10 mi
9:20 AM81 °FSunny.9 mph37%30.09 "Hg10 mi
8:50 AM79 °FSunny.9 mph42%30.09 "Hg10 mi
8:30 AM77 °FSunny.5 mph44%30.09 "Hg10 mi
8:20 AM77 °FSunny.5 mph44%30.09 "Hg10 mi
7:50 AM72 °FClear.No wind53%30.09 "Hg10 mi
7:20 AM68 °FClear.5 mph53%30.09 "Hg10 mi
6:30 AM68 °FSmoke.N/A49%30.09 "HgN/A
5:30 AM68 °FSmoke.N/A46%30.07 "HgN/A
3:30 AM73 °FPassing clouds.5 mph38%30.09 "HgN/A
2:20 AM79 °FPassing clouds.5 mph32%30.09 "HgN/A
1:30 AM77 °FPassing clouds.7 mph34%30.09 "HgN/A
12:30 AM77 °FPassing clouds.7 mph36%30.09 "HgN/A
11:30 PM
Aug 20
79 °FPassing clouds.7 mph34%30.12 "HgN/A
Weather by CustomWeather, © 2014

See weather overviewHow to use our weather pages